Temperature
19 19 19 19 18 17 19 19 19 19 19 19 19 19 18 18 18 18 17 18 18 18 18 18 18 18 18 18 18 17 17 17 17 17 17 17 17 17 17 17 17 17 17 17 17 17 17 18 18
19 19 19 19 17 18 19 19 19 20 20 20 20 19 18 18 18 18 18 18 18 18 18 18 18 18 18 18 17 17 17 17 17 17 17 17 17 17 17 17 17 17 17 17 17 17 17 17 17
19 19 19 17 18 18 19 19 19 20 20 20 19 19 18 18 18 18 18 18 18 18 18 18 18 17 17 17 17 17 17 17 17 17 16 16 16 16 16 16 16 16 16 16 16 17 17 17 17
19 19 19 17 19 19 19 19 20 20 20 20 19 18 18 18 18 18 18 18 18 18 18 17 17 17 17 17 17 17 17 17 16 16 16 16 16 16 16 16 16 16 16 16 16 16 16 17 17
20 19 18 18 19 19 19 19 20 20 20 19 19 18 18 18 18 18 18 18 18 18 18 17 17 17 17 17 17 16 16 16 16 16 16 16 16 16 15 15 15 15 15 16 16 16 16 16 16
20 18 18 18 19 19 20 20 20 20 19 19 19 18 18 18 18 18 18 18 18 18 18 17 17 17 17 16 16 16 16 16 16 15 15 15 15 15 15 15 15 15 15 15 15 16 16 16 16
19 17 18 18 18 19 20 20 20 19 19 19 19 18 18 18 18 18 18 18 18 18 18 17 17 17 16 16 16 16 16 16 15 15 15 15 15 15 15 15 15 15 15 15 15 15 16 16 16
19 17 18 18 19 19 20 20 20 20 19 20 19 18 18 18 18 18 18 18 18 18 17 17 17 17 17 16 16 16 16 16 15 15 15 15 15 15 15 15 15 15 15 15 15 15 15 16 16
19 17 18 18 19 19 20 20 20 20 20 19 19 19 19 19 18 18 18 18 18 18 18 17 17 17 16 16 16 16 16 16 15 15 15 15 15 15 15 15 15 15 15 15 15 15 15 15 16
19 17 19 19 19 19 19 20 20 20 19 19 19 19 19 19 19 19 19 19 18 18 18 18 17 17 17 16 16 16 16 16 15 15 15 15 15 15 15 15 15 15 15 15 15 15 15 15 15
18 18 19 19 19 19 20 20 20 20 19 19 19 19 19 19 19 19 19 19 19 18 18 18 17 17 17 17 16 16 16 16 15 15 15 15 15 15 15 15 15 15 15 14 15 15 15 15 15
18 19 19 19 20 20 20 20 20 20 20 21 20 20 19 19 19 19 19 19 19 19 18 18 18 17 17 17 16 16 16 16 15 15 15 15 15 15 15 15 15 14 14 14 14 15 15 15 15
18 18 19 19 20 20 20 20 20 20 21 21 20 20 20 19 19 19 19 19 19 19 18 18 18 17 17 17 17 16 16 16 15 15 15 15 15 15 15 14 14 14 14 14 14 14 15 15 15
18 18 19 19 20 20 20 20 20 20 20 20 20 20 20 20 19 19 19 19 19 19 19 18 18 18 17 17 17 16 16 15 15 15 15 15 15 14 14 14 14 14 14 14 14 14 15 15 15
19 18 19 19 19 20 20 20 19 20 20 20 20 20 20 20 20 20 20 20 19 19 19 18 18 18 17 17 16 16 16 15 15 15 15 14 14 14 14 14 14 14 14 14 14 14 15 15 15
18 18 18 19 19 19 20 19 19 20 20 19 19 20 20 20 20 20 20 20 19 19 19 18 18 18 17 17 16 16 16 15 15 15 14 14 14 14 14 14 14 14 14 14 14 14 14 15 15
17 17 18 19 19 19 19 19 19 19 19 19 19 20 20 20 20 20 20 20 20 19 19 19 18 18 17 17 16 16 16 15 15 15 14 14 14 14 14 14 14 14 14 14 14 14 14 15 15
17 17 18 18 19 19 18 18 18 19 19 19 19 20 20 20 20 20 20 20 20 19 19 19 18 18 17 17 17 16 16 15 15 15 14 14 14 14 14 14 14 14 14 14 14 14 14 15 15
18 18 18 18 19 19 18 18 18 18 18 18 19 19 20 20 21 20 20 20 20 20 19 19 18 18 18 17 17 16 16 15 15 15 14 14 14 14 14 14 14 14 14 14 14 14 14 15 15
18 17 18 18 18 18 18 18 18 18 18 18 19 19 20 20 20 20 20 20 20 20 19 19 18 18 18 17 17 16 16 16 15 15 15 14 14 14 14 14 14 14 14 14 14 14 14 14 14
18 17 18 18 18 18 18 18 18 18 18 18 19 19 20 20 21 21 20 20 20 20 19 19 19 18 18 17 17 17 16 16 16 15 15 15 14 14 14 14 14 14 14 14 14 14 14 14 14
17 18 18 18 17 17 18 17 18 18 17 17 18 19 19 20 21 21 21 20 20 20 19 19 19 18 18 17 17 17 17 16 16 16 15 15 15 15 14 14 14 14 14 14 14 14 14 14 14
18 18 18 17 17 17 17 17 17 17 17 17 17 18 19 20 20 21 21 20 20 20 19 19 19 18 18 17 17 17 17 16 16 16 15 15 15 15 15 14 14 14 14 14 14 14 14 14 14
18 17 17 16 16 17 17 17 17 16 17 17 17 18 19 20 20 20 20 20 20 20 19 19 19 18 18 18 17 17 17 16 16 16 16 15 15 15 15 15 14 14 14 14 14 14 14 14 14
17 16 16 16 16 17 17 17 17 18 17 18 18 18 19 20 20 20 20 20 20 20 19 19 19 18 18 18 17 17 17 16 16 16 16 16 15 15 15 15 15 14 14 14 14 14 14 14 14
16 17 16 16 16 16 17 17 17 18 18 19 19 19 19 19 20 20 20 20 19 19 19 19 18 18 18 18 17 17 17 16 16 16 16 15 15 15 15 15 15 14 14 14 14 14 14 14 14
16 16 16 16 16 16 16 17 18 17 17 17 17 18 18 19 19 20 19 19 19 19 19 19 18 18 18 17 17 17 17 16 16 16 16 15 15 15 15 15 15 14 14 14 14 14 14 14 14
17 16 15 16 16 17 18 17 17 17 16 16 16 17 18 19 19 19 19 19 19 19 19 18 18 18 18 17 17 17 17 16 16 16 16 15 15 15 15 15 15 14 14 14 14 14 14 14 14
16 16 16 15 16 16 17 17 18 18 17 16 16 18 19 19 19 19 19 19 19 19 18 18 18 18 17 17 17 17 16 16 16 16 15 15 15 15 15 15 14 14 14 14 14 14 14 14 14
18 17 16 16 16 16 16 18 19 18 17 17 17 18 19 19 19 19 19 19 18 18 18 18 18 17 17 17 16 16 16 16 16 16 15 15 15 15 15 14 14 14 14 14 14 14 14 14 14
Wind_Speed
4 4 3 3 5 5 2 2 1 2 3 2 5 5 6 4 3 5 1 5 6 5 6 8 9 9 10 10 10 10 10 10 10 9 9 9 9 9 8 8 8 7 7 6 6 5 5 5 5
1 1 3 4 4 3 2 1 2 1 3 4 5 5 6 6 4 5 3 5 6 6 7 8 10 10 10 10 10 10 10 10 10 10 9 9 9 8 8 8 7 7 6 6 6 5 5 5 5
1 2 3 4 3 3 2 1 1 3 3 2 4 5 5 4 4 4 4 7 6 6 7 8 10 10 9 10 10 10 10 9 9 9 9 9 8 7 7 7 7 7 6 6 6 5 5 5 5
3 4 4 4 3 0 1 1 1 4 3 4 4 5 4 3 4 5 7 7 7 5 6 7 9 9 8 9 9 9 9 9 9 8 8 7 7 6 6 6 6 6 6 6 6 5 5 5 5
4 4 4 3 2 1 1 1 1 3 3 4 5 5 4 4 6 9 8 7 7 5 5 6 8 8 8 8 8 8 8 8 8 7 7 6 6 6 5 5 6 6 6 6 6 6 6 6 5
4 4 4 2 2 2 2 1 3 5 4 4 5 5 3 2 7 7 7 6 5 5 4 4 7 7 7 7 7 7 7 6 6 6 6 5 5 5 5 5 6 6 7 6 6 6 6 6 6
3 4 3 3 1 1 1 2 4 4 4 3 4 5 3 2 4 7 6 5 4 4 4 3 4 4 5 5 5 5 5 5 6 6 6 7 7 7 6 6 6 7 7 7 7 7 7 7 6
3 4 3 2 2 1 1 2 4 4 3 3 4 6 5 5 5 7 6 5 4 3 2 2 2 3 4 4 4 4 5 6 7 7 7 8 8 8 8 7 7 7 7 7 7 7 7 7 7
3 4 2 3 4 2 1 3 2 3 5 3 3 4 5 9 9 8 5 3 1 2 0 0 1 1 2 3 4 6 6 7 8 8 8 8 8 8 8 8 7 7 8 8 9 9 8 7 7
4 3 4 3 3 3 1 2 4 4 4 3 5 5 8 9 9 8 6 5 4 3 3 2 1 1 1 3 4 5 5 6 7 8 8 7 7 8 7 9 9 9 9 9 10 10 9 8 7
2 4 2 1 1 2 2 2 3 7 3 5 8 10 10 8 8 7 6 5 5 3 3 3 3 2 1 1 3 4 5 5 6 7 7 6 7 7 8 8 9 9 9 9 9 9 8 7 6
1 1 1 1 1 2 3 3 3 3 4 6 10 12 9 9 8 8 7 5 3 3 3 2 2 2 1 1 2 3 3 4 5 6 7 5 4 5 5 5 7 7 6 6 7 6 7 6 6
1 0 1 1 2 1 3 3 3 2 5 9 10 10 10 9 7 6 5 4 3 3 2 2 3 3 2 2 1 3 3 3 4 6 7 6 4 3 4 4 5 6 6 5 4 4 5 5 5
2 1 2 2 2 1 4 2 3 2 7 10 10 9 8 9 7 5 4 4 4 3 2 1 2 3 3 2 2 2 3 4 5 6 7 7 5 4 3 3 4 5 6 5 4 4 3 3 3
3 3 3 1 1 1 4 3 1 3 8 9 8 7 6 6 6 6 6 5 5 4 3 3 3 4 4 4 3 4 4 5 5 6 7 7 6 5 4 3 3 5 7 6 5 5 4 4 4
4 4 1 1 1 1 4 2 0 5 9 8 7 6 5 4 5 5 5 5 5 5 4 3 4 6 5 4 4 4 5 6 5 6 7 8 7 7 5 3 4 6 7 5 3 4 4 4 4
3 3 2 1 1 1 3 3 1 4 8 8 7 6 5 4 4 4 5 5 6 6 5 5 6 6 6 5 5 6 5 5 5 6 7 7 8 7 6 4 4 6 5 4 4 4 3 3 4
4 3 2 1 0 3 3 1 0 3 6 7 6 5 5 5 5 4 4 5 6 5 6 6 6 6 6 5 5 4 4 3 4 5 5 6 7 7 6 4 6 6 4 5 5 4 4 3 3
5 4 3 1 0 2 3 2 1 2 5 5 5 6 6 5 3 3 4 5 6 5 6 5 6 5 5 3 3 3 2 2 2 3 5 6 6 7 6 4 4 5 4 4 5 3 4 4 4
4 4 2 2 2 2 2 1 1 2 4 5 7 7 7 4 3 4 5 5 5 6 6 5 5 5 4 3 2 2 2 0 1 2 4 6 6 6 5 4 4 4 4 6 6 4 3 4 5
3 4 4 3 2 3 3 3 1 1 1 2 4 4 5 7 7 5 5 5 6 6 6 6 5 5 4 4 3 3 3 3 3 3 3 4 6 6 5 4 3 4 4 4 4 4 4 3 4
2 5 6 4 3 0 2 1 4 2 2 3 4 4 6 6 6 5 6 6 6 5 5 6 6 5 4 4 4 4 3 1 1 1 2 4 5 5 5 4 4 3 3 4 4 3 2 2 3
4 5 5 4 4 2 2 3 5 1 4 6 5 5 6 6 6 6 6 6 5 5 5 6 6 4 4 4 4 4 3 1 0 1 2 3 4 5 4 4 3 3 3 3 4 4 3 2 2
8 7 6 5 4 1 3 3 5 5 7 6 6 6 6 6 6 5 4 5 4 4 5 5 6 4 4 4 4 4 4 2 1 1 2 2 3 3 4 4 3 3 3 3 3 3 3 3 2
6 6 3 2 1 4 3 3 8 7 7 8 10 9 6 6 6 6 6 6 5 5 5 5 6 4 3 4 3 3 3 3 2 1 1 1 2 2 3 3 2 2 3 3 3 3 3 3 3
6 7 6 5 5 2 1 5 7 4 3 5 7 7 7 6 6 6 7 6 6 6 5 6 6 4 4 4 3 2 2 2 1 1 1 1 1 2 2 2 2 3 3 3 3 3 3 2 3
6 4 4 5 3 2 4 5 6 2 4 6 7 8 8 8 7 7 6 6 6 6 5 5 6 5 4 3 3 2 2 1 0 0 0 1 1 1 2 2 2 3 3 3 3 3 3 3 3
5 6 5 5 6 3 3 4 5 7 8 8 9 10 9 8 7 7 6 6 5 5 5 5 5 5 4 3 3 3 2 1 1 2 1 1 2 2 2 2 2 3 3 3 3 3 3 4 4
5 4 4 4 4 5 3 7 7 11 12 14 13 11 10 10 9 7 6 5 5 5 5 5 5 5 4 4 3 3 2 2 2 2 2 1 2 2 2 2 2 3 3 3 3 3 3 4 4
6 8 7 5 4 4 4 7 4 8 10 12 11 9 9 9 8 7 7 6 6 6 5 5 5 5 4 4 4 3 3 3 3 3 3 2 2 2 2 2 2 2 3 3 2 3 3 3 4
Wind_Direction
4 47 69 55 53 54 45 3 26 50 65 55 71 80 87 68 85 120 73 108 110 104 101 105 106 103 100 99 96 92 89 88 86 86 86 84 81 76 72 67 62 58 54 52 52 47 46 44 42
40 63 54 57 76 71 6 360 65 80 135 135 73 72 74 67 70 103 110 116 111 108 103 107 106 102 98 97 94 92 90 86 84 82 81 80 77 72 66 61 56 52 47 43 41 35 31 26 24
42 50 69 63 83 131 136 42 109 79 99 98 74 57 73 88 109 126 140 126 107 99 101 110 107 103 100 97 93 91 89 85 82 80 77 74 72 68 63 58 52 46 41 34 27 19 13 10 9
67 45 53 66 68 69 150 128 112 107 85 60 93 70 62 63 132 134 130 122 109 98 103 113 110 107 103 99 95 92 89 85 81 76 72 69 65 60 55 48 41 36 30 24 16 7 358 356 359
60 73 59 53 38 12 47 55 46 82 75 68 85 83 50 15 104 120 126 124 122 114 111 116 114 110 106 103 98 94 90 84 77 70 63 56 52 46 40 34 26 21 16 13 9 1 352 347 344
53 64 79 83 31 11 34 71 86 79 80 81 87 89 60 87 122 133 127 123 123 121 110 109 115 111 105 100 96 90 84 76 68 58 48 38 31 22 16 13 11 7 1 0 0 356 348 344 338
93 86 111 131 111 36 67 85 103 103 95 100 106 93 94 159 155 134 120 111 104 106 99 77 77 87 94 91 85 76 66 57 47 38 31 23 18 13 5 1 360 357 355 358 359 355 348 342 336
113 96 86 113 139 149 29 87 101 100 101 105 103 126 161 191 145 111 96 86 91 90 87 78 62 60 50 38 44 46 37 32 26 22 21 21 17 9 5 2 360 356 358 2 4 3 359 356 350
89 78 144 186 170 167 103 104 97 73 96 72 79 135 159 139 123 112 100 83 106 165 189 71 36 33 30 14 17 17 18 22 20 15 16 18 11 7 5 4 8 8 10 12 11 12 14 12 7
83 134 199 194 171 157 131 119 135 98 82 84 77 80 111 127 138 145 156 175 195 214 230 218 227 284 348 359 19 9 14 19 17 15 17 21 19 16 17 15 19 19 22 20 19 19 20 19 13
124 179 202 160 139 137 126 106 123 125 143 169 151 144 137 140 151 164 179 193 208 219 230 209 201 226 263 357 14 16 21 23 21 22 23 32 32 26 27 24 19 18 21 20 14 15 13 12 11
119 245 156 139 125 125 128 115 102 137 173 159 152 148 146 154 169 180 187 196 195 197 223 219 179 169 164 70 33 35 34 26 18 19 26 42 40 30 26 25 16 16 13 12 10 5 3 6 10
147 288 102 105 83 107 102 113 120 77 107 123 133 142 155 166 178 190 185 184 180 201 214 199 154 144 131 104 68 65 51 41 30 33 36 50 55 39 32 24 20 16 15 12 5 2 1 4 7
177 107 62 53 69 83 115 96 97 99 125 131 146 160 170 175 179 177 178 184 186 187 168 131 124 132 123 103 87 76 73 62 52 41 39 49 57 53 41 28 17 11 7 7 8 2 358 355 3
100 90 51 25 96 88 107 67 98 139 135 145 164 172 176 187 181 187 191 184 179 166 136 126 125 113 108 101 94 90 77 67 53 38 40 45 50 48 44 32 13 1 2 7 14 11 14 14 14
80 87 102 324 118 81 116 148 219 145 145 159 172 180 186 205 206 204 188 174 160 144 134 127 121 111 103 97 93 87 74 64 52 43 42 43 46 48 47 34 9 2 10 14 14 14 13 14 14
70 130 165 354 58 99 120 162 208 155 156 170 181 191 196 210 224 209 182 169 155 148 137 115 111 113 104 94 87 81 74 64 51 44 40 39 42 45 48 37 14 10 18 14 13 24 20 13 7
159 150 146 165 43 114 127 192 182 157 173 184 184 192 199 206 223 197 173 159 146 135 125 119 112 108 103 90 79 65 56 41 39 35 30 33 35 36 42 40 23 20 23 16 14 19 22 20 2
138 132 133 152 334 125 147 169 187 175 170 186 192 195 202 214 211 156 152 143 134 129 128 129 126 126 120 104 97 88 58 14 13 15 24 29 29 30 39 37 27 25 28 16 11 14 23 17 2
128 120 124 70 45 122 120 57 253 198 198 201 196 197 197 192 167 154 148 146 148 149 146 141 142 141 137 123 122 123 121 56 350 350 13 22 22 21 33 38 26 19 22 21 20 24 24 19 21
143 163 169 143 73 53 93 356 302 267 235 203 196 193 186 185 179 171 158 158 155 159 165 162 154 144 138 124 104 81 58 36 17 4 356 358 13 20 27 29 26 20 26 20 14 22 39 28 16
187 179 160 142 119 9 116 201 272 240 253 216 209 192 187 183 175 169 162 163 170 174 163 152 146 140 139 137 131 124 118 116 274 299 322 341 5 12 19 21 21 21 19 18 9 32 35 49 24
160 126 125 119 123 75 54 140 274 199 225 227 210 193 186 179 170 169 168 167 166 160 153 147 138 133 137 140 141 128 121 139 17 5 359 357 356 0 5 10 14 13 10 10 18 25 34 45 53
122 94 75 59 78 158 210 171 255 219 211 203 196 190 181 174 162 154 142 131 135 130 128 132 135 134 137 140 139 138 137 131 89 23 355 345 342 344 352 1 6 2 2 3 9 21 33 38 47
121 116 98 79 121 235 215 199 245 239 210 190 186 186 177 165 156 149 145 144 147 140 138 134 135 134 136 137 140 147 152 152 164 219 282 317 332 336 334 351 350 354 355 358 8 25 25 30 39
159 144 154 168 189 234 225 229 253 272 203 167 163 163 160 159 159 157 158 158 155 149 141 138 141 138 135 137 139 131 135 145 176 209 221 269 280 294 315 331 339 350 2 13 18 25 13 23 26
137 159 155 125 130 143 249 275 301 110 133 150 153 159 172 172 165 159 153 152 150 145 147 149 144 135 136 142 131 112 104 119 131 39 31 299 299 310 337 346 350 356 7 12 21 23 9 15 15
144 142 118 135 151 194 260 258 231 201 192 180 177 181 181 170 162 154 153 154 148 144 139 132 133 134 129 128 128 115 96 81 75 73 45 355 337 355 7 8 6 6 13 18 26 17 10 19 6
138 141 140 136 156 156 216 260 223 200 188 186 190 186 176 170 165 159 155 149 139 130 128 127 128 123 120 122 111 97 85 73 69 61 33 12 7 11 14 9 20 21 17 17 26 15 15 15 5
173 174 158 160 192 177 183 263 277 206 187 181 181 177 170 164 158 154 151 144 138 135 131 131 131 130 131 123 110 100 84 75 63 43 21 21 25 18 18 25 30 23 17 17 22 8 14 14 4
Height
1506 1505 1505 1507 1509 1517 1520 1517 1514 1513 1513 1514 1514 1514 1516 1520 1523 1530 1528 1526 1528 1529 1529 1530 1531 1531 1532 1532 1532 1532 1533 1533 1533 1533 1534 1534 1534 1534 1534 1534 1534 1534 1534 1534 1534 1534 1534 1534 1534
1506 1506 1508 1508 1515 1526 1523 1516 1514 1513 1513 1514 1515 1516 1518 1521 1523 1525 1526 1528 1529 1530 1531 1531 1532 1532 1532 1533 1533 1533 1534 1534 1534 1534 1534 1534 1534 1534 1534 1534 1533 1533 1534 1534 1534 1534 1534 1534 1534
1507 1507 1509 1510 1518 1524 1521 1515 1514 1513 1514 1515 1517 1519 1521 1524 1525 1527 1528 1529 1530 1531 1532 1533 1533 1533 1533 1534 1534 1534 1534 1534 1535 1535 1535 1535 1534 1534 1534 1534 1533 1533 1533 1533 1533 1533 1533 1533 1533
1508 1509 1510 1515 1519 1517 1515 1514 1513 1514 1515 1516 1518 1521 1524 1526 1527 1529 1530 1531 1532 1533 1533 1534 1534 1534 1535 1535 1535 1535 1535 1535 1535 1535 1535 1535 1535 1535 1534 1534 1533 1533 1533 1533 1532 1533 1533 1533 1533
1508 1509 1514 1520 1519 1516 1514 1514 1514 1515 1516 1518 1519 1523 1526 1528 1529 1530 1531 1533 1533 1534 1535 1536 1536 1536 1536 1536 1536 1536 1536 1536 1536 1536 1536 1536 1536 1535 1535 1534 1534 1533 1533 1532 1532 1532 1532 1532 1532
1509 1510 1522 1525 1520 1516 1515 1515 1515 1517 1518 1520 1522 1524 1529 1530 1531 1532 1534 1535 1536 1536 1537 1537 1538 1538 1538 1538 1538 1538 1538 1538 1538 1538 1537 1537 1537 1536 1535 1535 1534 1533 1533 1532 1532 1531 1531 1531 1531
1511 1515 1521 1522 1522 1519 1516 1516 1517 1518 1520 1522 1523 1526 1530 1532 1533 1534 1536 1537 1538 1539 1539 1539 1540 1540 1540 1540 1540 1540 1540 1540 1539 1539 1539 1538 1537 1537 1536 1535 1534 1534 1533 1532 1531 1531 1530 1530 1530
1511 1515 1520 1522 1522 1520 1517 1517 1518 1519 1522 1523 1525 1527 1530 1532 1534 1536 1537 1538 1540 1540 1541 1541 1542 1542 1542 1542 1542 1542 1542 1541 1541 1540 1540 1539 1538 1537 1537 1536 1535 1534 1533 1532 1532 1531 1530 1530 1529
1511 1519 1524 1521 1520 1519 1517 1518 1519 1521 1522 1524 1525 1527 1530 1533 1535 1537 1538 1540 1541 1542 1543 1543 1544 1544 1544 1544 1544 1543 1543 1543 1542 1541 1541 1540 1539 1538 1537 1536 1535 1534 1533 1532 1532 1531 1530 1529 1529
1512 1520 1518 1515 1515 1516 1517 1518 1520 1522 1524 1526 1527 1529 1531 1534 1536 1538 1539 1541 1542 1543 1544 1545 1545 1546 1546 1546 1545 1545 1545 1544 1543 1542 1541 1540 1539 1538 1537 1536 1535 1534 1533 1532 1531 1531 1530 1529 1529
1512 1515 1514 1514 1515 1516 1517 1519 1520 1522 1525 1525 1527 1529 1532 1535 1537 1539 1541 1542 1543 1544 1545 1546 1547 1547 1547 1547 1547 1546 1546 1545 1544 1543 1542 1541 1540 1539 1538 1537 1535 1534 1533 1532 1531 1530 1530 1529 1529
1513 1513 1514 1515 1515 1516 1517 1519 1521 1522 1524 1525 1527 1530 1533 1536 1538 1540 1542 1543 1545 1546 1546 1547 1548 1548 1548 1548 1548 1547 1547 1546 1545 1544 1542 1541 1540 1539 1538 1537 1536 1534 1533 1532 1531 1530 1529 1529 1529
1513 1514 1514 1515 1516 1517 1518 1520 1522 1523 1525 1527 1530 1532 1534 1537 1539 1541 1543 1545 1546 1547 1547 1548 1549 1549 1549 1549 1549 1548 1548 1547 1546 1544 1543 1542 1541 1539 1538 1537 1536 1535 1533 1532 1531 1530 1529 1529 1528
1513 1514 1516 1517 1517 1518 1520 1522 1523 1525 1526 1528 1531 1533 1536 1538 1540 1542 1544 1545 1547 1548 1548 1549 1549 1550 1550 1550 1550 1549 1548 1548 1546 1545 1544 1542 1541 1540 1539 1537 1536 1535 1533 1532 1531 1530 1529 1528 1528
1514 1516 1518 1518 1519 1520 1521 1525 1525 1526 1528 1530 1532 1534 1537 1539 1541 1543 1545 1546 1548 1549 1549 1550 1551 1551 1551 1551 1551 1550 1549 1548 1547 1546 1544 1543 1542 1541 1539 1538 1537 1535 1534 1532 1531 1530 1529 1528 1528
1515 1520 1525 1521 1520 1521 1525 1532 1526 1526 1528 1531 1533 1535 1537 1539 1541 1543 1545 1547 1549 1550 1550 1551 1552 1552 1552 1552 1552 1551 1551 1550 1548 1547 1545 1544 1543 1542 1540 1539 1537 1536 1534 1533 1531 1530 1529 1528 1528
1522 1528 1528 1524 1521 1522 1525 1530 1527 1528 1529 1531 1533 1535 1537 1539 1541 1543 1546 1547 1549 1550 1551 1552 1553 1553 1553 1553 1553 1552 1552 1551 1550 1548 1547 1545 1544 1543 1542 1540 1538 1537 1535 1533 1532 1531 1530 1529 1528
1528 1528 1527 1527 1523 1524 1527 1529 1528 1528 1529 1531 1532 1534 1536 1538 1541 1543 1545 1548 1549 1551 1552 1553 1554 1554 1554 1554 1554 1553 1553 1552 1551 1550 1548 1547 1546 1544 1543 1541 1540 1538 1536 1535 1533 1532 1531 1530 1529
1521 1525 1528 1527 1523 1525 1528 1529 1529 1528 1529 1531 1532 1533 1535 1537 1540 1543 1545 1547 1549 1551 1552 1554 1554 1555 1555 1555 1555 1555 1554 1553 1553 1551 1550 1549 1547 1546 1544 1543 1541 1540 1538 1536 1534 1533 1532 1531 1530
1521 1526 1528 1527 1524 1527 1530 1531 1529 1528 1529 1529 1530 1532 1534 1537 1539 1542 1544 1547 1549 1551 1552 1554 1555 1556 1556 1556 1556 1556 1555 1555 1554 1553 1552 1550 1549 1547 1546 1544 1543 1541 1540 1538 1536 1535 1533 1532 1532
1522 1526 1528 1529 1528 1528 1531 1534 1530 1528 1528 1529 1530 1531 1533 1535 1538 1540 1543 1546 1548 1550 1552 1554 1555 1556 1557 1557 1557 1557 1556 1556 1555 1554 1553 1552 1550 1549 1547 1546 1544 1543 1541 1540 1538 1537 1535 1534 1533
1525 1520 1523 1527 1534 1539 1535 1546 1533 1530 1529 1528 1528 1530 1531 1534 1537 1539 1542 1545 1547 1550 1552 1554 1555 1556 1557 1557 1558 1558 1557 1557 1556 1555 1554 1553 1552 1551 1549 1547 1546 1544 1543 1541 1540 1539 1537 1536 1535
1520 1519 1523 1528 1535 1540 1538 1545 1539 1530 1530 1528 1527 1528 1530 1532 1535 1538 1541 1544 1546 1549 1551 1553 1555 1556 1557 1557 1558 1558 1558 1557 1557 1556 1555 1554 1553 1552 1550 1549 1548 1546 1545 1543 1542 1540 1539 1538 1537
1517 1523 1528 1533 1538 1548 1541 1545 1541 1532 1526 1524 1525 1526 1528 1531 1534 1537 1540 1543 1546 1548 1550 1552 1554 1555 1556 1557 1558 1558 1558 1558 1557 1556 1556 1555 1554 1553 1551 1550 1549 1547 1546 1544 1543 1542 1541 1540 1538
1518 1530 1544 1548 1551 1549 1538 1540 1536 1520 1518 1519 1521 1524 1527 1530 1533 1536 1539 1542 1545 1547 1549 1551 1553 1554 1556 1556 1557 1558 1558 1557 1557 1557 1556 1555 1554 1553 1552 1551 1550 1548 1547 1546 1544 1543 1542 1541 1540
1519 1525 1541 1550 1553 1548 1539 1540 1526 1516 1514 1516 1519 1522 1525 1529 1532 1535 1538 1541 1543 1546 1548 1550 1552 1553 1555 1556 1556 1557 1557 1557 1557 1556 1556 1555 1554 1554 1553 1551 1550 1549 1548 1546 1545 1544 1543 1542 1541
1520 1525 1525 1536 1542 1547 1542 1532 1520 1515 1515 1516 1518 1521 1524 1527 1530 1533 1537 1540 1543 1545 1547 1549 1551 1552 1553 1555 1556 1556 1556 1556 1556 1556 1555 1555 1554 1554 1553 1552 1551 1550 1548 1547 1546 1545 1544 1543 1542
1513 1519 1529 1537 1547 1549 1540 1534 1527 1517 1516 1516 1517 1519 1522 1526 1529 1532 1536 1539 1541 1544 1546 1548 1550 1551 1553 1554 1555 1555 1555 1556 1556 1555 1555 1554 1554 1553 1553 1552 1551 1550 1549 1548 1547 1545 1544 1543 1542
1517 1521 1524 1532 1533 1544 1547 1534 1507 1506 1506 1510 1513 1516 1519 1523 1527 1531 1534 1538 1540 1543 1545 1547 1549 1550 1552 1553 1554 1554 1555 1555 1555 1555 1554 1554 1553 1553 1552 1551 1551 1550 1549 1548 1546 1545 1544 1543 1542
1507 1512 1520 1530 1533 1534 1537 1528 1498 1499 1501 1505 1509 1514 1518 1522 1526 1530 1533 1536 1539 1542 1544 1546 1548 1550 1551 1552 1553 1553 1554 1554 1554 1554 1553 1553 1553 1552 1552 1551 1550 1549 1548 1547 1546 1545 1544 1543 1542